Stephen Cunningham

Olheiro - Middlesbrough
14 Out 2027
Quinta-feira
Processo

Personalidade

Adaptabilidade (8) Ambição (8) Controvérsia (9) Lealdade (18) Pressão (20) Profissionalismo (8) Espírito Esportivo (11) Temperamento (5)

Perfil

Estilo de Treinamento Democrático
Licença Continental Pro
Determinação 11
Gestão de Pessoas 7
Motivação 9
Disciplina 9
Satisfação no Trabalho
100%
Fadiga
0%
Função Olheiro
Salário 86.6K p/s
Contrato 14.03.2029

Desempenho

Comportamento Bom
Eficácia do Treinamento
45%
Desenvolvimento do Jogador
55%
Prevenção de Lesões
60%
Implementação Tática
60%

Eventos Recentes

Participou de uma reunião de recrutamento 7d atrás
Participou de uma reunião de recrutamento 14d atrás
Participou de uma reunião de recrutamento 21d atrás
Participou de uma reunião de recrutamento 28d atrás
Participou de uma reunião de recrutamento 35d atrás
Participou de uma reunião de recrutamento 42d atrás
Participou de uma reunião de recrutamento 49d atrás
Participou de uma reunião de recrutamento 56d atrás

Monitorando agora

120
Jogador Clube Status Habilidade Confiança Observado Última observação Último voto
Sascha Britschgi Padova Ativo 125 / 129 40% 3 22.06.2027 -
Josh King Chelsea Ativo 139 / 145 40% 2 22.06.2027 -
Joel McGregor Swindon Town Ativo 89 / 95 40% 2 22.06.2027 -
Tom Atcheson Blackburn Rovers Relatório pronto 109 / 116 76% 1 03.06.2027 -
Ibrahim Maza Bayer Leverkusen Ativo 143 / 151 40% 4 31.05.2027 -
Leandro Martins Benfica Ativo 88 / 101 40% 3 30.05.2027 -
Ali Ahmed Norwich City Ativo 122 / 128 40% 4 29.05.2027 -
Giacomo Raspadori Atalanta Ativo 145 / 144 40% 3 29.05.2027 -
David Turnbull Cardiff City Ativo 120 / 114 40% 1 29.05.2027 -
Christos Mouzakitis Hull City Ativo 137 / 137 40% 3 27.05.2027 -
Matías Gómez Granada Ativo 112 / 122 40% 1 27.05.2027 -
Mats Wieffer Brighton Ativo 156 / 154 40% 7 26.05.2027 -
Othmane Maamma Watford Ativo 132 / 126 40% 3 26.05.2027 -
Hlompho Lorch Ajax Cape Town Ativo 107 / 98 40% 1 24.05.2027 -
Ethan Galbraith Swansea City Ativo 128 / 127 40% 4 23.05.2027 -
Davide Bartesaghi AC Milan Ativo 126 / 132 40% 3 23.05.2027 -
Dango Ouattara Brentford Ativo 152 / 140 40% 3 23.05.2027 -
Daniel Kelly Oxford United Ativo 117 / 117 40% 1 23.05.2027 -
Ronald Swansea City Ativo 124 / 129 40% 2 22.05.2027 -
Nicolas Jackson Aston Villa Ativo 147 / 147 40% 4 21.05.2027 -
Xavier Amaechi Plymouth Argyle Ativo 114 / 112 40% 1 21.05.2027 -
Jack Rudoni Coventry City Ativo 140 / 137 40% 2 19.05.2027 -
Kevin Fulham Ativo 149 / 154 40% 1 19.05.2027 -
Amine Adli Bournemouth Ativo 141 / 149 40% 3 18.05.2027 -
Finn Azaz Southampton Ativo 129 / 130 40% 3 18.05.2027 -
Keagan Tau Ajax Cape Town Ativo 86 / 95 40% 3 17.05.2027 -
Dylan Lawlor Cardiff City Ativo 117 / 122 40% 4 16.05.2027 -
Juan Giménez Celta Ativo 116 / 123 40% 1 16.05.2027 -
Georginio Rutter Brighton Ativo 149 / 150 40% 2 07.05.2027 -
Derry Murkin Derby County Ativo 127 / 121 40% 1 07.05.2027 -
Caleb Yirenkyi Coventry City Ativo 129 / 145 40% 1 04.05.2027 -
Zaïd BafdilI Sporting CP Ativo 89 / 98 40% 1 04.05.2027 -
Kazunari Kita Real Sociedad Ativo 99 / 107 40% 1 04.05.2027 -
Mduduzi Shabalala Kaizer Chiefs Ativo 121 / 122 40% 3 30.04.2027 -
Ollie Tanner Cardiff City Ativo 116 / 111 40% 2 30.04.2027 -
Rodrigo Gomes Wolverhampton Ativo 138 / 145 40% 1 30.04.2027 -
Williams Manyama SuperSport United Ativo 122 / 122 40% 4 29.04.2027 -
Jack McGlynn Stoke City Ativo 129 / 127 40% 1 29.04.2027 -
Kwame Poku Queens Park Rangers Ativo 119 / 119 40% 1 27.04.2027 -
Tshepang Moremi Orlando Pirates Ativo 119 / 116 40% 1 27.04.2027 -
Mandla Erasmus SuperSport United Ativo 114 / 121 40% 2 26.04.2027 -
Louie Barry Sheffield Wednesday Ativo 130 / 124 40% 1 26.04.2027 -
Amadou Onana Aston Villa Ativo 156 / 157 40% 3 24.04.2027 -
Oswin Appollis Orlando Pirates Ativo 127 / 114 40% 2 22.04.2027 -
Borja Sainz Fiorentina Ativo 152 / 149 40% 2 21.04.2027 -
Reiss Nelson Aston Villa Ativo 146 / 145 40% 1 21.04.2027 -
Adam Wharton Crystal Palace Ativo 153 / 152 40% 5 20.04.2027 -
Zane Albarus Cambridge United Ativo 99 / 95 40% 2 20.04.2027 -
Mikkel Damsgaard Brentford Ativo 146 / 142 40% 3 19.04.2027 -
Ernie Weaver AFC Wimbledon Ativo 104 / 116 40% 2 15.04.2027 -
Martim Cunha Porto Ativo 98 / 109 40% 1 15.04.2027 -
Riley Owen Trento Ativo 107 / 108 40% 1 15.04.2027 -
Daniel Kyerewaa Reading Ativo 108 / 116 40% 2 14.04.2027 -
Stanley Mills Oxford United Ativo 123 / 125 40% 1 14.04.2027 -
Matvey Kislyak CSKA Moscow Ativo 138 / 146 40% 1 14.04.2027 -
Jack Diamond Stockport County Ativo 112 / 120 40% 1 12.04.2027 -
Ilyas Ansah Hull City Ativo 129 / 137 40% 1 12.04.2027 -
Tom Fellows Southampton Ativo 140 / 135 40% 5 09.04.2027 -
Siyanda Ndlovu Bloemfontein Celtic Ativo 112 / 117 40% 2 09.04.2027 -
Jofre Torrents Ajax Ativo 122 / 130 40% 1 07.04.2027 -
Boubacar Kamara Aston Villa Ativo 168 / 161 40% 1 04.04.2027 -
Manor Solomon West Ham United Ativo 133 / 135 40% 1 03.04.2027 -
Christ Inao Oulaï Fiorentina Ativo 134 / 142 40% 2 01.04.2027 -
Yeremy Pino Crystal Palace Ativo 149 / 154 40% 2 26.03.2027 -
Percy Jali Free State Stars Ativo 104 / 104 40% 1 25.03.2027 -
Luiz Henrique West Ham United Ativo 138 / 145 40% 1 24.03.2027 -
Óscar Mingueza Crystal Palace Ativo 158 / 149 40% 3 22.03.2027 -
Adrien Truffert Bournemouth Ativo 146 / 155 40% 4 22.03.2027 -
Ryan Sessegnon Fulham Ativo 153 / 143 40% 2 18.03.2027 -
Scott Twine Bristol City Ativo 127 / 126 40% 2 18.03.2027 -
Keagan Phiri Platinum Stars Ativo 90 / 103 40% 2 17.03.2027 -
Rivaldo Grobler Free State Stars Ativo 98 / 99 40% 2 17.03.2027 -
Finn Jeltsch VfB Stuttgart Ativo 128 / 142 40% 1 17.03.2027 -
James Dornelly Peterborough United Ativo 104 / 114 40% 1 14.03.2027 -
Derrick Fordjour Medeama Ativo 89 / 88 40% 2 12.03.2027 -
Florentino Luís Ipswich Town Ativo 141 / 141 40% 1 10.03.2027 -
Carlos Vicente Birmingham Perdido 145 / 144 40% 1 10.03.2027 -
Assane Diao Lazio Ativo 150 / 151 40% 1 08.03.2027 -
Mfundo Vilakazi Kaizer Chiefs Ativo 108 / 120 40% 1 02.03.2027 -
Jan Bürger Gillingham Ativo 117 / 120 40% 1 01.03.2027 -
Jack Hinshelwood Brighton Ativo 140 / 146 40% 1 01.03.2027 -
Bosun Lawal Stoke City Ativo 133 / 120 40% 1 31.12.2026 -
André Wolverhampton Ativo 148 / 149 40% 1 28.12.2026 -
Noah Sadiki Sunderland Ativo 147 / 146 40% 3 26.12.2026 -
Nicolás Fernández Mercau Shakhtar Ativo 146 / 138 40% 2 26.12.2026 -
Ethan Ampadu Leeds United Ativo 142 / 146 40% 1 26.12.2026 -
Anel Ahmedhodžić Burnley Ativo 131 / 133 40% 1 25.12.2026 -
Elliot Anderson Manchester City Ativo 146 / 159 40% 3 24.12.2026 -
Imrân Louza Watford Ativo 123 / 126 40% 1 24.12.2026 -
Jake O'Brien Everton Ativo 143 / 148 40% 1 23.12.2026 -
Nathan Collins Brentford Ativo 144 / 146 40% 1 23.12.2026 -
Soungoutou Magassa West Ham United Ativo 140 / 132 40% 2 21.12.2026 -
Loïc Williams Colorado Rapids Ativo 121 / 132 40% 1 15.12.2026 -
Habib Diarra Sunderland Ativo 131 / 142 40% 3 09.12.2026 -
Teden Mengi Luton Town Ativo 122 / 117 40% 1 09.12.2026 -
Bradley Tau SuperSport United Ativo 126 / 130 40% 3 08.12.2026 -
Aaron Hickey Brentford Ativo 136 / 148 40% 4 05.12.2026 -
James Garner Everton Ativo 151 / 157 40% 2 03.12.2026 -
Jacques Ekomié Wrexham Ativo 132 / 132 40% 1 03.12.2026 -
Yehor Yarmoliuk Brentford Ativo 141 / 145 40% 1 02.12.2026 -
Bobby Thomas Coventry City Ativo 130 / 138 40% 1 30.11.2026 -
Christian Krasnodar Ativo 135 / 127 40% 1 30.11.2026 -
Welington Southampton Ativo 125 / 136 40% 2 29.11.2026 -
Jarrad Branthwaite Everton Ativo 159 / 145 40% 2 28.11.2026 -
Lewis Gibson Preston Ativo 129 / 118 40% 1 28.11.2026 -
Juan Manuel Sanabria Real Salt Lake Ativo 130 / 131 40% 2 26.11.2026 -
Alhassan Yusuf New England Revolution Ativo 123 / 115 40% 1 25.11.2026 -
Quinten Timber Crystal Palace Ativo 155 / 147 40% 3 23.11.2026 -
Rico Lewis Manchester City Ativo 154 / 156 40% 2 23.11.2026 -
Facundo Mura Inter Miami CF Ativo 138 / 121 40% 2 20.11.2026 -
Callum Doyle Wrexham Ativo 129 / 130 40% 2 19.11.2026 -
Lukas Engel Real Salt Lake Ativo 136 / 117 40% 3 14.11.2026 -
Juanlu Bournemouth Ativo 147 / 148 40% 1 13.11.2026 -
Malick Thiaw West Ham United Ativo 154 / 159 40% 1 12.11.2026 -
Bryan Ramírez FC Cincinnati Ativo 126 / 129 40% 1 12.11.2026 -
Toby Collyer West Bromwich Albion Ativo 121 / 132 40% 1 06.11.2026 -
Kimito Nono Sanfrecce Hiroshima Ativo 125 / 124 40% 1 20.10.2026 -
Shea Charles Southampton Ativo 137 / 142 40% 1 18.10.2026 -
David Brekalo Orlando City Ativo 140 / 117 40% 1 12.10.2026 -
James Sands New York City Ativo 118 / 126 40% 1 08.10.2026 -